GFSNIL_prec_snow_363.txt.gz
Snowfall_Accumulation
2.2 2.3 3.7 2.2 2.2 1.6 1.2 1.0 0.1 0.6 0.6 0.1 0.1 0.3 0.7 0.0 0.0 0.8 1.7 0.0 0.0 1.7
2.3 2.7 2.9 3.0 2.7 1.1 1.6 2.2 0.2 1.0 1.1 1.1 0.1 0.1 0.5 0.8 0.0 0.0 1.1 1.6 0.0 0.0
2.1 2.7 2.4 2.7 3.2 3.0 3.3 1.5 2.6 3.5 1.0 1.3 1.1 0.0 0.5 0.4 0.8 0.1 1.1 1.5 0.0 0.0
0.7 1.6 2.1 2.9 2.9 3.6 3.1 3.0 3.4 3.0 4.3 1.2 1.5 0.1 0.7 0.4 0.6 0.9 1.0 1.3 1.8 0.0
5.4 3.9 1.7 2.0 3.0 2.4 2.6 3.1 4.1 4.5 3.7 4.9 1.8 1.8 2.3 0.9 0.8 0.7 0.8 1.4 1.9 1.5
9.0 9.8 7.1 2.9 0.6 3.4 2.4 2.5 4.6 7.0 5.6 4.7 2.2 2.7 1.8 1.2 1.1 1.2 0.7 0.0 1.7 1.9
8.4 9.2 10.4 9.2 8.0 7.8 6.2 3.1 3.5 5.3 4.7 5.5 6.4 3.2 4.9 1.6 1.8 2.1 1.2 0.1 0.1 1.6
7.0 8.1 8.1 9.6 9.0 9.1 10.6 10.1 8.9 8.3 7.4 5.3 6.3 3.5 6.8 6.4 4.0 3.7 3.0 1.0 1.6 2.3
7.2 6.5 7.5 8.5 9.9 9.2 9.1 10.3 10.1 13.3 8.1 10.4 7.2 7.0 7.1 3.8 9.0 5.7 6.8 4.7 3.2 2.6
8.2 7.7 7.9 8.4 8.1 7.9 9.0 9.1 8.6 12.4 14.3 14.6 11.0 7.1 4.0 4.6 6.4 9.3 9.0 7.1 5.1 3.6
6.9 6.7 6.7 7.5 7.5 7.6 7.8 9.6 9.9 10.4 10.7 15.2 16.1 13.3 13.4 13.5 15.9 11.7 11.6 7.7 5.2 3.7
5.5 5.6 5.9 7.1 7.6 9.9 11.4 14.2 14.7 17.1 18.8 18.0 19.3 13.1 16.6 20.5 19.4 18.4 9.7 7.3 3.7 3.5
5.6 8.1 11.2 8.8 8.7 13.9 13.8 13.6 14.9 15.7 15.5 15.1 16.1 13.5 11.1 18.9 25.0 27.1 19.2 8.4 7.2 3.7
5.6 7.5 9.0 10.7 10.7 11.8 13.6 13.6 12.3 11.5 9.7 9.9 13.4 14.8 14.2 15.3 21.0 24.4 25.1 20.4 12.4 8.8

GFSNIL_prec_snow_366.txt.gz
Snowfall_Accumulation
2.2 2.3 3.7 2.2 2.2 1.6 1.2 1.0 0.1 0.6 0.6 0.1 0.1 0.3 0.7 0.0 0.0 0.8 1.7 0.0 0.0 1.7
2.3 2.7 2.9 3.0 2.7 1.1 1.6 2.2 0.2 1.0 1.1 1.1 0.1 0.1 0.5 0.8 0.0 0.0 1.1 1.6 0.0 0.0
2.1 2.7 2.4 2.7 3.2 3.0 3.3 1.5 2.6 3.5 1.0 1.3 1.1 0.0 0.5 0.4 0.8 0.1 1.1 1.5 0.0 0.0
0.7 1.6 2.1 2.9 2.9 3.6 3.1 3.0 3.4 3.0 4.3 1.2 1.5 0.1 0.7 0.4 0.6 0.9 1.0 1.3 1.8 0.0
5.4 3.9 1.7 2.0 3.0 2.4 2.6 3.1 4.1 4.5 3.7 4.9 1.8 1.8 2.3 0.9 0.8 0.7 0.8 1.4 1.9 1.5
9.0 9.8 7.1 2.9 0.6 3.4 2.4 2.5 4.6 7.0 5.6 4.7 2.2 2.7 1.8 1.2 1.1 1.2 0.7 0.0 1.9 2.1
8.4 9.2 10.4 9.2 8.0 7.8 6.2 3.1 3.5 5.3 4.7 5.5 6.4 3.2 4.9 1.6 1.8 2.1 1.2 0.2 0.1 1.6
7.0 8.1 8.1 9.6 9.0 9.1 10.6 10.1 8.9 8.3 7.4 5.3 6.3 3.5 6.8 6.4 4.0 3.7 3.0 1.0 1.6 2.3
7.2 6.5 7.5 8.5 9.9 9.2 9.1 10.3 10.1 13.3 8.1 10.4 7.2 7.0 7.1 3.8 9.0 5.7 6.9 4.7 3.2 2.6
8.2 7.7 7.9 8.4 8.1 7.9 9.0 9.1 8.6 12.4 14.3 14.6 11.0 7.1 4.0 4.6 6.4 9.3 9.0 7.1 5.1 3.6
6.9 6.7 6.7 7.5 7.5 7.6 7.8 9.6 9.9 10.4 10.7 15.2 16.1 13.3 13.4 13.5 15.9 11.7 11.6 7.7 5.2 3.7
5.5 5.6 5.9 7.1 7.6 9.9 11.4 14.2 14.7 17.1 18.8 18.0 19.3 13.1 16.6 20.5 19.4 18.4 9.7 7.3 3.7 3.5
5.6 8.1 11.2 8.8 8.7 13.9 13.8 13.6 14.9 15.7 15.5 15.1 16.1 13.5 11.1 18.9 25.0 27.1 19.2 8.4 7.2 3.7
5.6 7.5 9.0 10.7 10.7 11.8 13.6 13.6 12.3 11.5 9.7 9.9 13.4 14.8 14.2 15.3 21.0 24.4 25.1 20.6 12.4 8.8

GFSNIL_prec_snow_369.txt.gz
Snowfall_Accumulation
2.2 2.3 3.7 2.2 2.2 1.6 1.2 1.0 0.1 0.6 0.6 0.1 0.1 0.3 0.7 0.0 0.0 0.8 1.7 0.0 0.0 1.7
2.3 2.7 2.9 3.0 2.7 1.1 1.6 2.2 0.2 1.0 1.1 1.1 0.1 0.1 0.5 0.8 0.0 0.0 1.1 1.6 0.0 0.0
2.1 2.7 2.4 2.7 3.2 3.0 3.3 1.5 2.6 3.5 1.0 1.3 1.1 0.0 0.5 0.4 0.8 0.1 1.1 1.5 0.0 0.0
0.7 1.6 2.1 2.9 2.9 3.6 3.1 3.0 3.4 3.0 4.3 1.2 1.5 0.1 0.7 0.4 0.6 0.9 1.0 1.3 1.8 0.0
5.4 3.9 1.7 2.0 3.0 2.4 2.6 3.1 4.1 4.5 3.7 4.9 1.8 1.8 2.3 0.9 0.8 0.7 0.8 1.4 1.9 1.5
9.0 9.8 7.1 2.9 0.6 3.4 2.4 2.5 4.6 7.0 5.6 4.7 2.2 2.7 1.8 1.2 1.1 1.2 0.7 0.0 1.9 2.1
8.4 9.2 10.4 9.2 8.0 7.8 6.2 3.1 3.5 5.3 4.7 5.5 6.4 3.2 4.9 1.6 1.8 2.1 1.2 0.2 0.1 1.6
7.0 8.1 8.1 9.6 9.0 9.1 10.6 10.1 8.9 8.3 7.4 5.3 6.3 3.5 6.8 6.4 4.0 3.7 3.0 1.0 1.6 2.3
7.2 6.5 7.5 8.5 9.9 9.2 9.1 10.3 10.1 13.3 8.1 10.4 7.2 7.0 7.1 3.8 9.0 5.7 6.9 4.7 3.2 2.6
8.2 7.7 7.9 8.4 8.1 7.9 9.0 9.1 8.6 12.4 14.3 14.6 11.0 7.1 4.0 4.6 6.4 9.3 9.0 7.1 5.1 3.6
6.9 6.7 6.7 7.5 7.5 7.6 7.8 9.6 9.9 10.4 10.7 15.2 16.1 13.3 13.4 13.5 15.9 11.7 11.6 7.7 5.2 3.7
5.5 5.6 5.9 7.1 7.6 9.9 11.4 14.2 14.7 17.1 18.8 18.0 19.3 13.1 16.6 20.5 19.4 18.4 9.7 7.3 3.7 3.5
5.6 8.1 11.2 8.8 8.7 13.9 13.8 13.6 14.9 15.7 15.5 15.1 16.1 13.5 11.1 18.9 25.0 27.1 19.2 8.4 7.2 3.7
5.6 7.5 9.0 10.7 10.7 11.8 13.6 13.6 12.3 11.5 9.7 9.9 13.4 14.8 14.2 15.3 21.0 24.5 25.1 20.6 12.4 8.8

GFSNIL_prec_snow_375.txt.gz
Snowfall_Accumulation
2.2 2.3 3.7 2.2 2.2 1.6 1.2 1.0 0.1 0.6 0.6 0.1 0.1 0.3 0.7 0.0 0.0 0.8 1.7 0.0 0.0 1.7
2.3 2.7 2.9 3.0 2.7 1.1 1.6 2.2 0.2 1.0 1.1 1.1 0.1 0.1 0.5 0.8 0.0 0.0 1.1 1.6 0.0 0.0
2.1 2.7 2.4 2.7 3.2 3.0 3.3 1.5 2.6 3.5 1.0 1.3 1.1 0.0 0.5 0.4 0.8 0.1 1.1 1.5 0.0 0.0
0.7 1.6 2.1 2.9 2.9 3.6 3.1 3.0 3.4 3.0 4.3 1.2 1.5 0.1 0.7 0.4 0.6 0.9 1.0 1.3 1.8 0.0
5.4 3.9 1.7 2.0 3.0 2.4 2.6 3.1 4.1 4.5 3.7 4.9 1.8 1.8 2.3 0.9 0.8 0.7 0.8 1.4 1.9 1.5
9.0 9.8 7.1 2.9 0.6 3.4 2.4 2.5 4.6 7.0 5.6 4.7 2.2 2.7 1.8 1.2 1.1 1.2 0.7 0.0 1.9 2.1
8.4 9.2 10.4 9.2 8.0 7.8 6.2 3.1 3.5 5.3 4.7 5.5 6.4 3.2 4.9 1.6 1.8 2.1 1.2 0.2 0.1 1.6
7.0 8.1 8.1 9.6 9.0 9.1 10.6 10.1 8.9 8.3 7.4 5.3 6.3 3.5 6.8 6.4 4.0 3.7 3.0 1.0 1.6 2.3
7.2 6.5 7.5 8.5 9.9 9.2 9.1 10.3 10.1 13.3 8.1 10.4 7.2 7.0 7.1 3.8 9.0 5.7 6.9 4.7 3.2 2.6
8.2 7.7 7.9 8.4 8.1 7.9 9.0 9.1 8.6 12.4 14.3 14.6 11.0 7.1 4.0 4.6 6.4 9.3 9.0 7.1 5.1 3.6
6.9 6.7 6.7 7.5 7.5 7.6 7.8 9.6 9.9 10.4 10.7 15.2 16.1 13.3 13.4 13.5 15.9 11.7 11.6 7.7 5.2 3.7
5.5 5.6 5.9 7.1 7.6 9.9 11.4 14.2 14.7 17.1 18.8 18.0 19.3 13.1 16.6 20.5 19.4 18.4 9.7 7.3 3.7 3.5
5.6 8.1 11.2 8.8 8.7 13.9 13.8 13.6 14.9 15.7 15.5 15.1 16.1 13.5 11.1 18.9 25.0 27.1 19.2 8.4 7.2 3.7
5.6 7.5 9.0 10.7 10.7 11.8 13.6 13.6 12.3 11.5 9.7 9.9 13.4 14.8 14.2 15.3 21.1 24.5 25.1 20.6 12.4 8.8

GFSNIL_prec_snow_381.txt.gz
Snowfall_Accumulation
2.2 2.3 3.7 2.2 2.2 1.6 1.2 1.0 0.1 0.6 0.6 0.1 0.1 0.3 0.7 0.0 0.0 0.8 1.7 0.0 0.0 1.7
2.3 2.7 3.0 3.0 2.7 1.1 1.6 2.2 0.2 1.0 1.1 1.1 0.1 0.1 0.5 0.8 0.0 0.0 1.1 1.6 0.0 0.0
2.1 2.7 2.4 2.7 3.2 3.0 3.3 1.5 2.6 3.5 1.0 1.3 1.1 0.0 0.5 0.4 0.8 0.1 1.1 1.5 0.0 0.0
0.7 1.6 2.1 2.9 2.9 3.6 3.1 3.0 3.4 3.0 4.3 1.2 1.5 0.1 0.7 0.4 0.6 0.9 1.0 1.3 1.8 0.0
5.4 3.9 1.7 2.0 3.0 2.4 2.6 3.1 4.1 4.5 3.7 4.9 1.8 1.8 2.3 0.9 0.8 0.7 0.8 1.4 1.9 1.5
9.0 9.8 7.1 2.9 0.6 3.4 2.4 2.5 4.6 7.0 5.6 4.7 2.2 2.7 1.8 1.2 1.1 1.2 0.7 0.0 1.9 2.1
8.4 9.2 10.4 9.2 8.0 7.8 6.2 3.1 3.5 5.3 4.7 5.5 6.4 3.2 4.9 1.6 1.8 2.1 1.2 0.2 0.1 1.6
7.0 8.1 8.1 9.6 9.0 9.1 10.6 10.1 8.9 8.3 7.4 5.3 6.3 3.5 6.8 6.4 4.0 3.7 3.0 1.0 1.6 2.3
7.2 6.5 7.5 8.5 9.9 9.2 9.1 10.3 10.1 13.3 8.1 10.4 7.2 7.0 7.1 3.8 9.0 5.7 6.9 4.7 3.2 2.6
8.2 7.7 7.9 8.4 8.1 7.9 9.0 9.1 8.6 12.4 14.3 14.6 11.0 7.1 4.0 4.6 6.4 9.3 9.0 7.1 5.1 3.6
6.9 6.7 6.7 7.5 7.5 7.6 7.8 9.6 9.9 10.4 10.7 15.2 16.1 13.3 13.4 13.5 15.9 11.7 11.6 7.7 5.2 3.7
5.5 5.6 5.9 7.1 7.6 9.9 11.4 14.2 14.7 17.1 18.8 18.0 19.3 13.1 16.6 20.5 19.4 18.4 9.7 7.3 3.7 3.5
5.6 8.1 11.2 8.8 8.7 13.9 13.8 13.6 14.9 15.7 15.5 15.1 16.1 13.5 11.1 18.9 25.1 27.1 19.3 8.4 7.2 3.7
5.6 7.5 9.0 10.7 10.7 11.8 13.6 13.6 12.3 11.5 9.7 9.9 13.4 14.8 14.2 15.4 21.1 24.6 25.1 20.6 12.4 8.9